Pond Inlet,

1:36 PM EST on December 07, 2016 (GMT -0500)
Pond Inlet

Weather History for CYIO - December, 2012

Change the Weather History Date:

Monday, December 31, 2012

  Actual Average Record
Temperature  
Mean Temperature -22 °F -  
Max Temperature -14 °F -15 °F 6 °F (2001)
Min Temperature -29 °F -26 °F -40 °F (2002)
Degree Days  
Heating Degree Days 86    
Moisture  
Dew Point -29 °F    
Average Humidity 64    
Maximum Humidity 76    
Minimum Humidity 49    
Precipitation  
Precipitation 0.00 in - - ()
Sea Level Pressure  
Sea Level Pressure 30.05 in    
Wind  
Wind Speed 1 mph ()    
Max Wind Speed 4 mph    
Max Gust Speed -    
Visibility 10.4 miles    
Events      
Averages and records for this station are not official NWS values.
T = Trace of Precipitation, MM = Missing Value Source: Averaged Metar Reports

Daily Weather History Graph

Daily Weather History Graph

Search for Another Location

Airport or City:

Trip Planner

Search our weather history database for the weather conditions in past years. The results will help you decide how hot, cold, wet, or windy it might be!

Date:

Astronomy

Dec. 31, 1969 Rise Set
Actual Time Sun does not rise Sun does not rise
Civil Twilight 11:31 AM EST 12:59 PM EST
Nautical Twilight 8:44 AM EST 3:46 PM EST
Astronomical Twilight 7:09 AM EST 5:21 PM EST
Moon 6:41 PM EST (12/31) 11:12 AM EST (12/31)
Length of Visible Light 1h 27m
Length of Day
0h 00m
Waning Gibbous, 90% of the Moon is Illuminated
Dec 31
Waning Gibbous
Jan 4
Last Quarter
Jan 11
New
Jan 18
First Quarter
Jan 26
Full

Hourly Weather History & Observations

Time (EST) Temp. Windchill Dew Point Humidity Pressure Visibility Wind Dir Wind Speed Gust Speed Precip Events Conditions
12:00 AM -16.6 °F - -23.8 °F 70% 30.03 in 9.0 mi Calm Calm - N/A   Partly Cloudy
1:00 AM -17 °F - -24 °F 57% 30.04 in 9 mi South 2.3 mph - -  
1:00 AM -16.6 °F - -23.8 °F 70% 30.04 in 9.0 mi South 2.3 mph - N/A   Partly Cloudy
2:00 AM -16.6 °F - -23.8 °F 70% 30.04 in 9.0 mi South 2.3 mph - N/A   Mostly Cloudy
4:00 AM -16 °F - -23 °F 55% 30.05 in 9 mi SSW 2.3 mph - -   Overcast
4:00 AM -14.8 °F - -23.8 °F 64% 30.05 in 9.0 mi SSW 2.3 mph - N/A   Overcast
5:00 AM -16.6 °F - -23.8 °F 70% 30.05 in 9.0 mi Calm Calm - N/A   Overcast
6:00 AM -16.6 °F - -25.6 °F 64% 30.05 in 9.0 mi SSW 2.3 mph - N/A   Mostly Cloudy
7:00 AM -19 °F - -26 °F 54% 30.05 in 9 mi Calm Calm - -  
8:00 AM -20.2 °F - -29.2 °F 63% 30.05 in 9.0 mi South 2.3 mph - N/A   Clear
9:00 AM -22.0 °F - -29.2 °F 69% 30.05 in 9.0 mi Calm Calm - N/A   Clear
10:00 AM -22 °F - -30 °F 50% 30.05 in 9 mi South 2.3 mph - -  
10:00 AM -22.0 °F - -29.2 °F 69% 30.05 in 9.0 mi South 2.3 mph - N/A   Clear
11:00 AM -22.0 °F - -29.2 °F 69% 30.06 in 15.0 mi South 2.3 mph - N/A   Partly Cloudy
12:00 PM -22.0 °F - -31.0 °F 63% 30.05 in 15.0 mi South 2.3 mph - N/A   Partly Cloudy
1:00 PM -24 °F - -32 °F 49% 30.06 in 9 mi South 3.5 mph - -  
1:00 PM -23.8 °F -35.0 °F -31.0 °F 69% 30.05 in 15.0 mi South 3.5 mph - N/A   Partly Cloudy
2:00 PM -23.8 °F - -29.2 °F 76% 30.06 in 15.0 mi Calm Calm - N/A   Partly Cloudy
3:00 PM -22.0 °F - -29.2 °F 69% 30.06 in 15.0 mi Calm Calm - N/A   Partly Cloudy
4:00 PM -24 °F - -32 °F 49% 30.06 in 9 mi Calm Calm - -  
4:00 PM -23.8 °F - -31.0 °F 69% 30.06 in 15.0 mi Calm Calm - N/A   Partly Cloudy
5:00 PM -25.6 °F - -32.8 °F 69% 30.06 in 15.0 mi Calm Calm - N/A   Clear
6:00 PM -25.6 °F - -32.8 °F 69% 30.06 in 9.0 mi Calm Calm - N/A   Clear
7:00 PM -25 °F - -32 °F 56% 30.06 in 9 mi Calm Calm - -  
7:00 PM -25.6 °F - -31.0 °F 76% 30.06 in 9.0 mi Calm Calm - N/A   Partly Cloudy
8:00 PM -27.4 °F - -34.6 °F 69% 30.05 in 9.0 mi Calm Calm - N/A   Partly Cloudy
9:00 PM -29.2 °F - -36.4 °F 68% 30.05 in 9.0 mi South 2.3 mph - N/A   Clear
10:00 PM -26 °F - -34 °F 50% 30.04 in 9 mi Calm Calm - -  
10:00 PM -25.6 °F - -32.8 °F 69% 30.04 in 9.0 mi SSW 2.3 mph - N/A   Clear
11:00 PM -29.2 °F - -36.4 °F 68% 30.04 in 9.0 mi South 2.3 mph - N/A   Clear